Long Beach, CA

8:56 PM PDT on June 25, 2017 (GMT -0700)
Long Beach

Weather History for KLGB - February, 2014

Change the Weather History Date:

Saturday, February 15, 2014

  Actual Average Record
Temperature  
Mean Temperature 63 °F 58 °F  
Max Temperature 76 °F 67 °F 91 °F (2016)
Min Temperature 49 °F 48 °F 34 °F (1990)
Degree Days  
Heating Degree Days 2 8  
Month to date heating degree days 95 120  
Since 1 July heating degree days 532 799  
Cooling Degree Days 0 0  
Month to date cooling degree days 0 0  
Year to date cooling degree days 15 3  
Growing Degree Days 12 (Base 50)    
Moisture  
Dew Point 49 °F    
Average Humidity 62    
Maximum Humidity 89    
Minimum Humidity 35    
Precipitation  
Precipitation 0.00 in 0.12 in 1.22 in (1962)
Month to date precipitation 0.29 1.57  
Year to date precipitation 0.30 4.17  
Since 1 July precipitation 1.61  
Sea Level Pressure  
Sea Level Pressure 29.98 in    
Wind  
Wind Speed 2 mph (West)    
Max Wind Speed 9 mph    
Max Gust Speed 12 mph    
Visibility 5 miles    
Events Fog    
T = Trace of Precipitation, MM = Missing Value Source: NWS Daily Summary

Daily Weather History Graph

Daily Weather History Graph

Search for Another Location

Airport or City:

Trip Planner

Search our weather history database for the weather conditions in past years. The results will help you decide how hot, cold, wet, or windy it might be!

Date:

Astronomy

Feb. 15, 2014 Rise Set
Actual Time 6:36 AM PST 5:36 PM PST
Civil Twilight 6:11 AM PST 6:02 PM PST
Nautical Twilight 5:42 AM PST 6:31 PM PST
Astronomical Twilight 5:13 AM PST 7:00 PM PST
Moon 6:36 PM PST (2/15) 6:42 AM PST (2/15)
Length of Visible Light 11h 51m
Length of Day
11h 00m
Full, 99% of the Moon is Illuminated
Feb 15
Full
Feb 22
Last Quarter
Mar 1
New
Mar 8
First Quarter
Mar 16
Full

Hourly Weather History & Observations

Time (PST) Temp. Dew Point Humidity Pressure Visibility Wind Dir Wind Speed Gust Speed Precip Events Conditions
12:53 AM 54.0 °F 48.9 °F 83% 29.99 in 8.0 mi Calm Calm - N/A   Clear
1:07 AM 55.4 °F 50.0 °F 82% 29.99 in 5.0 mi Calm Calm - N/A   Haze
1:14 AM 55.4 °F 51.8 °F 88% 29.99 in 2.0 mi Calm Calm - N/A   Mostly Cloudy
1:16 AM 53.6 °F 51.8 °F 94% 29.99 in 1.2 mi Calm Calm - N/A   Mostly Cloudy
1:24 AM 53.6 °F 51.8 °F 94% 29.98 in 0.8 mi Calm Calm - N/A   Overcast
1:53 AM 54.0 °F 50.0 °F 86% 29.97 in 0.5 mi Calm Calm - N/A Fog Fog
2:03 AM 53.6 °F 51.8 °F 94% 29.97 in 0.2 mi Calm Calm - N/A Fog Fog
2:12 AM 53.6 °F 51.8 °F 94% 29.97 in 0.5 mi Calm Calm - N/A Fog Fog
2:25 AM 53.6 °F 50.0 °F 88% 29.96 in 0.2 mi Calm Calm - N/A Fog Fog
2:53 AM 53.1 °F 50.0 °F 89% 29.96 in 0.2 mi Calm Calm - N/A Fog Fog
3:14 AM 53.6 °F 48.2 °F 82% 29.95 in 0.5 mi Calm Calm - N/A Fog Fog
3:24 AM 51.8 °F 48.2 °F 88% 29.95 in 1.0 mi Calm Calm - N/A   Mist
3:31 AM 51.8 °F 48.2 °F 88% 29.95 in 1.8 mi Calm Calm - N/A   Scattered Clouds
3:33 AM 51.8 °F 48.2 °F 88% 29.95 in 3.0 mi Calm Calm - N/A   Scattered Clouds
3:53 AM 51.1 °F 48.0 °F 89% 29.95 in 5.0 mi Calm Calm - N/A   Clear
4:53 AM 51.1 °F 46.9 °F 86% 29.95 in 6.0 mi Calm Calm - N/A   Clear
5:20 AM 50.0 °F 46.4 °F 87% 29.95 in 1.5 mi Calm Calm - N/A   Clear
5:22 AM 50.0 °F 46.4 °F 87% 29.96 in 1.0 mi Calm Calm - N/A   Mist
5:29 AM 50.0 °F 46.4 °F 87% 29.96 in 0.5 mi Calm Calm - N/A Fog Fog
5:36 AM 50.0 °F 46.4 °F 87% 29.96 in 1.2 mi Calm Calm - N/A   Scattered Clouds
5:42 AM 50.0 °F 46.4 °F 87% 29.96 in 2.0 mi Calm Calm - N/A   Scattered Clouds
5:50 AM 50.0 °F 46.4 °F 87% 29.96 in 8.0 mi Calm Calm - N/A   Scattered Clouds
5:53 AM 51.1 °F 46.0 °F 83% 29.96 in 8.0 mi Calm Calm - N/A   Partly Cloudy
6:53 AM 50.0 °F 46.0 °F 86% 29.99 in 6.0 mi Calm Calm - N/A   Clear
7:53 AM 55.0 °F 50.0 °F 83% 30.01 in 6.0 mi Calm Calm - N/A   Haze
8:53 AM 60.1 °F 50.0 °F 69% 30.03 in 7.0 mi Calm Calm - N/A   Clear
9:53 AM 64.9 °F 48.0 °F 54% 30.04 in 6.0 mi NW 3.5 mph - N/A   Haze
10:53 AM 69.1 °F 50.0 °F 51% 30.04 in 7.0 mi Calm Calm - N/A   Clear
11:53 AM 73.0 °F 48.9 °F 42% 30.02 in 7.0 mi South 3.5 mph - N/A   Clear
12:53 PM 73.0 °F 52.0 °F 48% 30.00 in 9.0 mi South 5.8 mph - N/A   Clear
1:53 PM 72.0 °F 52.0 °F 49% 29.98 in 9.0 mi South 5.8 mph - N/A   Clear
2:53 PM 75.0 °F 48.9 °F 40% 29.97 in 7.0 mi SW 3.5 mph - N/A   Clear
3:53 PM 73.9 °F 45.0 °F 35% 29.96 in 6.0 mi WNW 6.9 mph - N/A   Haze
4:53 PM 71.1 °F 43.0 °F 36% 29.96 in 6.0 mi WNW 4.6 mph - N/A   Haze
5:53 PM 68.0 °F 45.0 °F 43% 29.96 in 7.0 mi NW 3.5 mph - N/A   Mostly Cloudy
6:53 PM 64.0 °F 48.0 °F 56% 29.97 in 8.0 mi NW 3.5 mph - N/A   Clear
7:53 PM 63.0 °F 48.0 °F 58% 29.99 in 9.0 mi WNW 4.6 mph - N/A   Clear
8:53 PM 61.0 °F 48.9 °F 64% 29.99 in 10.0 mi WNW 4.6 mph - N/A   Clear
9:53 PM 59.0 °F 50.0 °F 72% 29.99 in 10.0 mi NW 4.6 mph - N/A   Clear
10:53 PM 57.9 °F 50.0 °F 75% 29.99 in 10.0 mi Calm Calm - N/A   Clear
11:53 PM 57.0 °F 51.1 °F 81% 30.00 in 10.0 mi NW 3.5 mph - N/A   Clear